www.pogodaiklimat.ru

Погода и климат >> Архив погоды >> Россия >> Якутия >> Делянкир


ПОГОДА в Делянкире

  • Прогноз погоды в Делянкире
  • Монитор погоды в Делянкире

АРХИВ ПОГОДЫ в Делянкире

Время (UTC), дата Ветер
(напр.,м/с)
 
Видим.   Явления Облачность Т
(С)
Тd
(С)
f
(%)
Тe
(С)
Тes
(С)
Комфортность P
(гПа)
Po
(гПа)
Тmin
(С)
Tmax
(С)
R
(мм)
R24
(мм)
S
(см)
00 12.02 штиль 0 50 км 3/0
[Ci fib]
-54.4 -58.3 62 -54 -54 опасность
обморожения
1034.2 913.8 -54.6 400
03 12.02 штиль 0 50 км ясно -45.1 -49.8 59 -45 -44 опасность
обморожения
1028.8 913.5
06 12.02 штиль 0 50 км ясно -41.8 -46.4 61 -42 -42 опасность
обморожения
1026.6 913.2
09 12.02 штиль 0 50 км ясно -48.8 -53.7 56 -49 -49 опасность
обморожения
1030.2 913.1 -41.8
12 12.02 штиль 0 50 км ясно -52.3 -56.5 60 -52 -52 опасность
обморожения
1033.5 914.2
15 12.02 штиль 0 50 км ясно -53.6 -58.3 56 -54 -54 опасность
обморожения
1033.9 914.1
18 12.02 штиль 0 50 км ясно -53.8 -58.3 57 -54 -54 опасность
обморожения
1035.1 914.9
21 12.02 штиль 0 50 км ясно -54.3 -58.3 61 -54 -54 опасность
обморожения
1035.8 915.1 -54.0 42
00 13.02 штиль 0 50 км 4/0
[As trans]
-53.3 -58.3 54 -53 -53 опасность
обморожения
1036.7 916.5
03 13.02 штиль 0 50 км ясно -45.8 -49.9 63 -46 -44 опасность
обморожения
1041.8 915.9
06 13.02 штиль 0 50 км ясно -42.3 -47.8 55 -42 -42 опасность
обморожения
1029.8 918.2
09 13.02 штиль 0 50 км ясно -48.3 -52.5 61 -48 -48 опасность
обморожения
1033.2 915.9 -42.3
12 13.02 штиль 0 50 км ясно -52.3 -56.5 60 -52 -52 опасность
обморожения
1036.6 916.9
15 13.02 штиль 0 50 км ясно -53.8 -58.3 57 -54 -54 опасность
обморожения
1037.4 916.9
18 13.02 штиль 0 50 км ясно -54.3 -58.3 61 -54 -54 опасность
обморожения
1037.6 916.8
21 13.02 штиль 0 50 км ясно -54.6 -58.3 63 -55 -55 опасность
обморожения
1037.7 916.8 -54.6 42
00 14.02 штиль 0 50 км ясно -53.7 -58.3 57 -54 -53 опасность
обморожения
1037.0 916.6
03 14.02 штиль 0 50 км ясно -45.7 -50.6 57 -46 -44 опасность
обморожения
1030.5 914.7
06 14.02 штиль 0 50 км ясно -42.7 -47.6 58 -43 -43 опасность
обморожения
1027.2 913.9
09 14.02 штиль 0 50 км ясно -48.5 -52.5 63 -49 -49 опасность
обморожения
1029.5 912.5 -42.7
12 14.02 штиль 0 50 км ясно -52.6 -56.5 62 -53 -53 опасность
обморожения
1030.9 911.8
15 14.02 штиль 0 50 км ясно -53.4 -58.3 55 -53 -53 опасность
обморожения
1030.6 911.3
18 14.02 штиль 0 50 км ясно -54.8 -58.3 65 -55 -55 опасность
обморожения
1029.8 909.7
21 14.02 штиль 0 50 км ясно -54.8 -58.3 65 -55 -55 опасность
обморожения
1029.0 909.0 -55.0 42
00 15.02 штиль 0 50 км ясно -54.3 -58.3 61 -54 -54 опасность
обморожения
1028.6 908.9
03 15.02 штиль 0 50 км ясно -45.8 -50.0 62 -46 -44 опасность
обморожения
1021.9 907.2
06 15.02 С 1 50 км 8/0
[]
-43.8 -48.3 61 -49 -49 опасность
обморожения
1020.3 906.6
09 15.02 штиль 0 50 км ясно -49.8 -53.7 63 -50 -50 опасность
обморожения
1021.7 905.1 -48.1
12 15.02 штиль 0 50 км ясно -52.8 -56.5 64 -53 -53 опасность
обморожения
1022.9 904.6
15 15.02 штиль 0 50 км ясно -54.8 -58.3 65 -55 -55 опасность
обморожения
1023.7 904.4
18 15.02 штиль 0 50 км ясно -56.1 -60.6 57 -56 -56 опасность
обморожения
1023.6 903.5
21 15.02 штиль 0 50 км ясно -56.3 -60.6 58 -56 -56 опасность
обморожения
1022.9 902.8 -56.3 42
00 16.02 штиль 0 50 км ясно -56.2 -60.6 57 -56 -55 опасность
обморожения
1022.2 922.3 -56.7
03 16.02 штиль 0 50 км ясно -46.7 -51.5 58 -47 -45 опасность
обморожения
1015.4 901.1
06 16.02 С 1 50 км ясно -43.7 -48.3 60 -49 -49 опасность
обморожения
1012.6 899.7
09 16.02 штиль 0 50 км ясно -48.8 -53.7 56 -49 -49 опасность
обморожения
1015.1 899.6 -43.7
12 16.02 штиль 0 50 км ясно -53.8 -58.3 57 -54 -54 опасность
обморожения
1018.0 899.8
15 16.02 штиль 0 50 км ясно -54.8 -58.3 65 -55 -55 опасность
обморожения
1019.0 900.2
18 16.02 штиль 0 50 км ясно -54.8 -58.3 65 -55 -55 опасность
обморожения
1020.8 901.7
21 16.02 штиль 0 50 км ясно -54.8 -58.3 65 -55 -55 опасность
обморожения
1020.2 901.3 -54.9 42
00 17.02 штиль 0 50 км 6/0
[Cu med, cong As trans Ci fib]
-53.8 -58.3 57 -54 -53 опасность
обморожения
1021.1 901.5
03 17.02 штиль 0 50 км 6/0
[As trans Cs]
-46.3 -50.6 61 -46 -45 опасность
обморожения
1017.6 903.0
06 17.02 штиль 0 50 км 6/0
[As trans Cs]
-42.3 -47.8 55 -42 -42 опасность
обморожения
1015.7 903.2
09 17.02 штиль 0 50 км 6/0
[As trans Cs]
-44.3 -49.0 59 -44 -44 опасность
обморожения
1018.6 904.8 -42.3
12 17.02 штиль 0 50 км 6/0
[As trans Ci fib]
-46.3 -50.6 61 -46 -46 опасность
обморожения
1021.6 906.5
15 17.02 штиль 0 50 км 6/0
[As trans Cs]
-45.8 -50.8 57 -46 -46 опасность
обморожения
1021.7 907.0
18 17.02 штиль 0 50 км 4/0
[As trans]
-47.9 -52.5 59 -48 -48 опасность
обморожения
1023.2 907.3
21 17.02 штиль 0 50 км 4/0
[As trans]
-49.1 -53.7 58 -49 -49 опасность
обморожения
1024.3 907.6 -49.2 42
00 18.02 штиль 0 50 км 8/0
[As trans Ci fib]
-47.7 -52.5 57 -48 -47 опасность
обморожения
1024.2 908.3 -49.7
03 18.02 штиль 0 50 км 8/0
[Ac As]
-41.9 -44.6 75 -42 -41 опасность
обморожения
1022.0 909.0
06 18.02 С 2 50 км 9/0
[As trans Ci fib]
-39.9 -44.8 59 -49 -49 опасность
обморожения
1021.4 909.4
09 18.02 штиль 0 50 км 4/0
[As trans]
-43.8 -48.3 61 -44 -44 опасность
обморожения
1024.3 910.2 -39.9
12 18.02 штиль 0 50 км 3/0
[As trans]
-48.3 -52.5 61 -48 -48 опасность
обморожения
1028.8 912.0
15 18.02 штиль 0 50 км 4/0
[As trans Ci fib]
-48.9 -53.7 57 -49 -49 опасность
обморожения
1030.2 912.9

 

Местоположение метеостанции Делянкир (Якутия, Россия): широта 63.83 долгота 145.60 высота над уровнем моря 801 м.

В архиве по умолчанию представлена погода в Делянкире за последнюю неделю. Архивные данные за месяц целиком и за предыдущие месяцы, начиная с января 2011 года, Вы можете получить, выбрав интересующий диапазон дат из раскрывающегося списка и нажав кнопку "Ввод!".


*Определитесь, кто Вы:
робот инопланетянин человек

Внимание! Время в таблицах - всемирное. Для получения местного времени необходимо прибавить поправку, которая равна 10 ч.

Смотрите также архив погоды в соседних городах и на ближайших метеорологических станциях:

Погода в Оймяконе (Якутия, Россия) (140 км)
Погода в Усть-Нере (Якутия, Россия) (144 км)
Погода в Сусумане (Магаданская область, Россия) (171 км)
Погода в Юртах (Якутия, Россия) (187 км)
Погода в Агаякане (Якутия, Россия) (201 км)
Погода в Колымской (Магаданская область, Россия) (242 км)
Погода в Ягодной (Магаданская область, Россия) (249 км)
Погода в Совхозе Эльген (Магаданская область, Россия) (275 км)
Погода на Озере Джека Лондона (Магаданская область, Россия) (277 км)
Погода в Восточной (Якутия, Россия) (305 км)

Пояснения к столбцам:

Ветер - указаны скорость ветра в м/с - средняя за 10 мин, порывы в срок и между сроками (в фигурных скобках) и направление, откуда дует ветер: С - северный, СВ - северо-восточный, В - восточный, ЮВ - юго-восточный, Ю - южный, ЮЗ - юго-западный, З - западный, СЗ - северо-западный.
Видимость - горизонтальная дальность видимости в метрах или километрах. При видимости от 1 до 10 км при отсутствии осадков обычно наблюдается дымка, при ухудшении видимости до 1 км и менее - туман. В сухую погоду видимость может ухудшаться дымом, пылью или мглою.
Явления - указаны атмосферные явления, наблюдавшиеся в срок или в последний час перед сроком; фигурными скобками обозначены явления, наблюдавшиеся между сроками (за 1-3 часа до срока); квадратными скобками обозначены град или гололедные отложения с указанием их диаметра в мм.
Облачность - указаны через наклонную черту общая и нижняя облачность в баллах и высота нижней границы облаков в метрах; квадратными скобками обозначены формы облаков: Ci - перистые, Cs - перисто-слоистые, Cc - перисто-кучевые, Ac - высококучевые, As - высокослоистые, Sc - слоисто-кучевые, Ns - слоисто-дождевые, Cu - кучевые, Cb - кучево-дождевые. Подробнее классификацию облаков см. в Атласе облаков (PDF).
T - Температура воздуха - температура, измеренная на высоте 2 м над землей.
Td - Температура точки росы - температура, при понижении до которой содержащийся в воздухе водяной пар достигнет насыщения.
f - Относительная влажность воздуха - влажноcть воздуха, измеренная на высоте 2 м над землей.
Te - Эффективная температура - температура, которую ощущает одетый по сезону человек в тени. Характеристика душности погоды. При расчете учитывается влияние влажности воздуха и скорости ветра на теплоощущения человека.
Tes - Эффективная температура на солнце - температура, которую ощущает человек, с поправкой на солнечный нагрев. Характеристика знойности погоды. Зависит от высоты солнца над горизонтом, облачности и скорости ветра. Ночью, в пасмурную погоду, а также при ветре 12 м/с и более поправка равна нулю.
P - Атмосферное давление - приведенное к уровню моря атмосферное давление.
Po - Атмосферное давление - измеренное на уровне метеостанции атмосферное давление.
Tmin - Минимальная температура - минимум температуры воздуха на высоте 2 м над землей.
Tmax - Максимальная температура - максимум температуры воздуха на высоте 2 м над землей.
R - Количество осадков - Количество выпавших осадков за период времени, мм. При наведении курсора мыши на число - период времени, за который выпало указанное количество осадков.
R24 - Количество осадков - Количество выпавших осадков за 24 часа, мм.
S - Снежный покров - Высота снежного покрова, см. При наведении курсора мыши на число - состояние снежного покрова и степень покрытия местности в баллах.